Regional Weather Roundup
Issued by NWS

Home | Current Version | Previous Version | Graphics & Text | Print | Product List | Glossary On
Versions: 1 2 3 4 5 6 7 8 9 10 11 12 13 14 15 16 17 18 19 20 21 22 23 24 25 26 27 28 29 30 31 32 33 34 35 36 37 38 39 40 41 42 43 44 45 46 47 48 49 50
000
ASUS43 KMPX 270201
RWRMN
WEATHER ROUNDUP FOR MINNESOTA
NATIONAL WEATHER SERVICE TWIN CITIES/CHANHASSEN MN
900 PM CDT FRI MAY 26 2017


NOTE: "FAIR" INDICATES FEW OR NO CLOUDS BELOW 12,000 FEET WITH NO
SIGNIFICANT WEATHER AND/OR OBSTRUCTIONS TO VISIBILITY. N/A MEANS
CURRENT SKY AND/OR WEATHER CONDITIONS ARE NOT AVAILABLE.

MNZ060>063-068>070-270300-
   Twin Cities Metro

CITY           SKY/WX    TMP DP  RH WIND       PRES   REMARKS
TWIN CITIES    PTCLDY    70  46  42 W7        29.76R
ST PAUL        CLEAR     71  47  42 W9        29.76R
CRYSTAL        CLEAR     69  46  43 W6        29.75R
BLAINE         PTCLDY    70  48  46 W6        29.76R
LAKEVILLE      CLEAR     66  48  52 W5        29.77R
EDEN PRAIRIE   CLEAR     71  47  42 NW7       29.76R
SOUTH ST PAUL  CLEAR     72  46  39 W6        29.76R
LAKE ELMO      FAIR      68  50  52 W7        29.77R
$$
MNZ001>005-007-008-013>017-022>024-027-028-270300-
   Northwest Minnesota

CITY           SKY/WX    TMP DP  RH WIND       PRES   REMARKS
BEMIDJI        CLEAR     61  42  50 W10       29.76R
HALLOCK        CLEAR     63  43  48 W12       29.70R
ROSEAU         CLEAR     63  48  59 W7        29.71R
WARROAD        PTCLDY    61  48  63 W5        29.71R
CROOKSTON      PTCLDY    63  45  51 W12       29.75R
FOSSTON        CLEAR     61  41  48 W6        29.76R
DETROIT LAKES  CLEAR     61  41  48 W6        29.79R
MOORHEAD       CLOUDY    64  43  45 W8        29.78R
PARK RAPIDS    LGT RAIN  63  40  42 W12       29.77R
MAHNOMEN       FAIR      61  42  50 W8        29.76S
$$
MNZ006-009>011-018-025>026-270300-
   North Central Minnesota

CITY           SKY/WX    TMP DP  RH WIND       PRES   REMARKS
BAUDETTE       CLEAR     62  43  49 W7        29.71R HAZE
FLAG ISLAND    CLOUDY    63  45  51 SW8       29.68R
INTL FALLS     CLOUDY    66  44  45 W7        29.70R
WASKISH        CLEAR     61  50  67 W8        29.74R
BIG FORK       PTCLDY    66  43  42 W3        29.73R
LONGVILLE      CLEAR     63  45  51 W3        29.75R
GRAND RAPIDS   MOCLDY    67  46  47 CALM      29.76R
CRANE LAKE     CLOUDY    61  57  88 CALM      29.72R
ORR            PTCLDY    61  45  55 CALM      29.69R
COOK           CLEAR     63  45  51 CALM      29.72R
WALKER         FAIR      62  43  50 W8        29.75R
$$
MNZ012-019>021-037-270300-
   Northeast Minnesota

CITY           SKY/WX    TMP DP  RH WIND       PRES   REMARKS
DULUTH         PTCLDY    53  49  86 SE5       29.75R
ELY            CLOUDY    57  54  88 SE7       29.73R
HIBBING        PTCLDY    64  43  46 W5        29.72R
EVELETH        CLEAR     66  34  31 W6        29.74R
DULUTH HARBOR  PTCLDY    46  45  93 N8        29.77R THUNDER
TWO HARBORS    CLOUDY    57  52  82 CALM      29.74R
SILVER BAY     CLOUDY    55  55 100 NE3       29.73R
GRAND MARAIS     N/A     50  46  86 NE6       29.76R
G MARAIS ARPRT MOCLDY    57  48  72 E5        29.79R
$$
MNZ029>031-032-039>041-046>048-054>057-064-270300-
   West Central Minnesota

CITY           SKY/WX    TMP DP  RH WIND       PRES   REMARKS
FERGUS FALLS   CLOUDY    61  45  55 NW8       29.78R
WHEATON        PTCLDY    63  43  48 W6        29.83R
MORRIS         CLOUDY    63  46  55 W8        29.80R
ALEXANDRIA     CLEAR     61  44  53 W9        29.81R
ELBOW LAKE     FAIR      62  45  52 W8        29.81R
WADENA         CLEAR     61  45  55 W6        29.78R
GLENWOOD       CLEAR     63  45  51 W8        29.81R
APPLETON       CLEAR     64  43  45 NW7       29.81R
BENSON         PTCLDY    61  45  55 N7        29.82R
ORTONVILLE     PTCLDY    64  45  48 NW10      29.82R
MADISON        CLEAR     64  48  55 NW7       29.82R
WILLMAR        FAIR      63  48  59 NW7       29.81R
$$
MNZ033>034-036-042>043-049>051-058-059-270300-
   Central Minnesota

CITY           SKY/WX    TMP DP  RH WIND       PRES   REMARKS
ST CLOUD       CLEAR     64  47  53 W7        29.77R
SAUK CENTRE    FAIR      61  45  55 W6        29.80R
PAYNESVILLE    CLEAR     62  46  54 W3        29.80R
AITKIN         CLEAR     64  46  52 W3        29.74R
PINE RIVER     CLEAR     64  46  52 CALM      29.80R
BRAINERD       CLEAR     66  44  45 W6        29.76R
STAPLES        CLEAR     61  43  51 W6        29.78R
LONG PRAIRIE   FAIR      63  43  48 SW3       29.79R
LITTLE FALLS   CLEAR     64  43  45 W7        29.78R
LITCHFIELD     CLEAR     66  46  48 W5        29.80R
BUFFALO        CLEAR     67  45  45 W6        29.79R
MAPLE LAKE     CLEAR     67  48  50 W3        29.79R
HUTCHINSON     CLEAR     68  47  46 W7        29.80R
$$
MNZ037-044-045-052-053-270300-
   East Central Minnesota

CITY           SKY/WX    TMP DP  RH WIND       PRES   REMARKS
PRINCETON      CLEAR     66  48  52 W3        29.77R
MORA           CLEAR     64  45  48 W5        29.77R
CAMBRIDGE      CLEAR     70  52  52 W3        29.75R
RUSH CITY      PTCLDY    64  50  59 CALM      29.75R
MOOSE LAKE     CLEAR     64  45  48 CALM      29.73R
HINCKLEY       FAIR      64  50  59 W5        29.75R
CLOQUET        CLEAR     55  50  82 CALM      29.75R
MCGREGOR       CLEAR     66  45  45 W5        29.75R
$$
MNZ071>073-080-081-089-090-097-098-270300-
   Southwest Minnesota

CITY           SKY/WX    TMP DP  RH WIND       PRES   REMARKS
MONTEVIDEO     CLEAR     64  45  48 N5        29.81R
CANBY          CLEAR     62  46  57 CALM      29.84R
MARSHALL       CLEAR     65  46  50 W8        29.82R
REDWOOD FALLS  CLEAR     66  44  45 W6        29.79R
OLIVIA         CLEAR     64  45  48 NW6       29.79S
PIPESTONE      CLEAR     66  37  34 CALM      29.85R
WINDOM         CLEAR     64  45  48 W7        29.83R
WORTHINGTON    CLEAR     62  44  51 W10       29.86R
JACKSON        CLEAR     64  45  48 CALM      29.84R
TRACY          CLEAR     67  45  45 W5        29.83R
SLAYTON        CLEAR     65  44  46 W7        29.85R
$$
MNZ065>067-074>077-082>085-091>093-270300-
   South Central Minnesota

CITY           SKY/WX    TMP DP  RH WIND       PRES   REMARKS
MANKATO        CLEAR     68  47  46 W8        29.80R
NEW ULM        CLEAR     64  46  52 W7        29.80R
ST JAMES       CLEAR     66  48  52 W6        29.82R
FAIRMONT       CLEAR     68  45  43 NW8       29.82R
GLENCOE        CLEAR     69  50  50 W7        29.78R
FARIBAULT      PTCLDY    66  50  55 W5        29.79R
OWATONNA       CLEAR     70  48  46 W8        29.79R
WASECA         CLEAR     68  46  45 W8        29.80R
ALBERT LEA     CLEAR     72  52  49 NW3       29.79R
$$
MNZ078>079-086>088-094>096-270300-
   Southeast Minnesota

CITY           SKY/WX    TMP DP  RH WIND       PRES   REMARKS
ROCHESTER      CLEAR     65  58  78 S12       29.80R
RED WING       MOCLDY    72  54  53 W3        29.76R
STANTON        CLEAR     70  49  47 W7        29.75S
DODGE CENTER   PTCLDY    66  57  72 S3        29.80R
WINONA         CLEAR     66  55  68 SE3       29.79S
AUSTIN         PTCLDY    66  57  72 S5        29.79R
PRESTON        CLOUDY    64  56  78 S9        29.82R
$$
ABBREVIATIONS USED IN REMARKS
   TC - TEMPERATURES IN CELSIUS
  WCI - WIND CHILL INDEX
   HX - HEAT INDEX
  VSB - VISIBILITY
$$



USA.gov is the U.S. government's official web portal to all federal, state and local government web resources and services.